Wind_Speed
26 25 23 21 20 19 19 18 16 14 13 13 13 13 13 12 11 9 8 8 6 6 5 5 6 6 7 7 7 7 7 7 7 7 7 7 7 7 6 5 4 4 4 3
27 25 24 24 23 22 21 19 17 15 13 13 14 15 14 14 13 11 9 8 7 6 5 5 5 5 6 6 6 6 6 6 6 6 6 7 7 6 6 5 5 4 3 3
27 25 27 26 25 24 22 21 19 18 17 17 18 17 16 15 14 12 10 8 7 7 6 5 5 5 5 5 6 6 6 6 5 5 5 6 6 5 5 5 5 4 4 3
28 28 28 28 27 26 24 23 22 22 22 20 20 19 17 15 15 14 13 10 9 8 8 6 5 4 4 5 5 5 5 5 5 5 5 5 6 5 5 5 5 4 4 4
29 29 29 29 28 27 25 24 25 25 24 23 22 22 19 18 17 16 14 12 11 9 9 7 6 5 4 4 4 4 5 5 5 4 5 5 5 5 6 6 7 6 5 6
29 30 30 29 28 27 26 27 27 27 26 25 23 23 21 20 18 17 16 14 12 10 10 9 8 7 5 5 5 5 5 5 5 5 5 5 5 6 6 7 7 8 7 7
30 30 30 29 29 28 29 29 30 29 29 26 23 24 22 19 18 17 16 14 13 12 11 11 10 8 6 6 6 6 6 6 6 6 6 6 6 7 7 8 8 9 9 8
30 30 30 29 29 28 29 29 30 30 29 26 24 24 20 18 18 18 17 15 14 14 13 12 11 9 8 7 7 7 7 7 7 7 7 7 7 7 8 8 9 9 9 8
30 29 29 29 28 28 28 28 28 30 29 28 26 23 21 19 19 19 17 15 14 13 13 12 12 10 9 8 8 8 8 8 9 8 7 7 7 8 8 9 9 9 9 8
29 29 29 28 28 28 28 28 29 30 29 28 26 24 22 20 19 19 19 18 15 14 13 13 13 11 10 10 9 8 8 9 9 9 8 8 8 8 9 9 9 9 9 9
30 28 28 28 29 28 27 29 30 30 29 28 27 23 21 20 20 20 20 19 17 16 15 15 15 14 13 12 10 9 8 9 10 9 9 8 8 9 10 10 10 10 10 10
29 28 29 28 26 26 27 27 28 30 30 29 27 24 21 20 20 19 19 19 18 17 16 15 15 15 13 12 11 10 9 10 10 10 10 9 9 9 10 10 10 10 11 11
29 30 29 29 28 27 28 27 28 29 30 30 28 25 22 20 20 20 20 19 19 18 16 16 15 15 15 13 11 11 11 11 11 10 10 11 11 10 11 11 11 11 11 11
30 30 29 30 29 28 28 28 29 29 31 31 29 27 24 22 21 20 20 21 19 19 18 17 16 16 16 15 12 11 12 13 13 12 12 11 11 11 12 12 12 11 11 11
30 31 30 29 29 28 27 27 28 30 30 31 29 29 28 26 24 23 23 22 22 22 21 20 19 18 17 15 14 13 14 15 14 13 12 12 12 12 13 13 13 12 13 12
31 31 30 30 30 30 29 28 28 28 29 31 31 31 30 29 27 26 25 24 25 25 24 22 20 19 17 15 15 15 15 15 15 14 14 14 13 13 14 14 14 14 14 14
33 31 30 31 30 31 31 29 28 28 29 29 31 32 32 31 29 29 28 27 27 26 25 22 20 20 19 18 18 17 16 16 15 15 15 15 15 14 14 15 14 15 14 14
32 32 30 30 30 32 30 29 28 28 28 29 31 32 32 32 31 30 30 30 28 27 26 24 23 23 21 20 20 19 19 18 17 16 16 17 16 16 16 15 15 15 16 16
32 31 31 31 32 32 31 29 28 28 28 29 31 32 33 32 33 32 31 31 29 28 26 25 24 24 22 20 20 20 20 20 18 18 18 18 18 17 17 17 17 17 17 17
31 31 32 33 33 34 31 30 29 29 29 30 31 31 31 32 33 32 32 32 30 28 27 26 25 24 23 22 22 22 22 21 20 20 20 20 20 19 18 18 18 18 18 19
31 31 32 33 34 34 32 31 31 31 31 30 30 31 30 31 32 31 31 31 30 29 29 28 27 26 25 24 23 23 23 22 21 22 22 22 22 21 20 20 20 19 19 20
31 30 32 33 34 33 32 32 33 32 30 30 31 30 31 32 32 31 31 30 29 29 29 28 27 27 26 25 25 25 25 23 23 23 23 23 23 23 23 23 22 22 21 21
32 31 31 32 31 30 31 32 32 32 31 29 29 29 30 30 31 31 30 30 29 28 28 28 28 27 26 26 26 26 26 25 24 24 24 24 24 24 25 24 24 23 23 23
32 32 32 31 31 30 30 31 31 31 31 30 29 28 28 29 29 29 30 30 30 29 28 28 28 27 26 26 27 26 26 26 26 26 25 26 26 25 25 24 25 25 25 25
32 32 31 31 31 31 31 30 30 30 29 28 28 28 28 28 27 28 28 28 29 29 28 27 28 28 26 26 26 26 27 26 27 27 27 27 26 26 26 26 26 24 25 24
32 32 31 31 31 31 30 30 30 30 30 28 27 27 27 26 27 27 27 27 27 27 26 26 26 27 27 26 25 25 26 24 24 25 26 26 25 25 25 26 26 25 24 23
Wind_Direction
228 228 227 227 226 224 222 220 221 223 232 243 257 274 283 289 297 309 316 330 345 350 356 6 15 13 12 16 22 26 29 30 31 33 34 32 28 26 29 29 31 24 16 10
228 227 225 224 223 223 223 219 219 221 233 244 255 266 271 279 290 297 299 314 328 335 339 349 4 2 1 8 18 24 24 26 28 29 30 27 27 26 23 21 19 14 4 356
227 225 224 223 222 223 224 220 216 215 223 238 248 256 263 270 280 287 288 298 306 315 321 333 352 6 358 359 9 12 16 19 21 25 22 19 18 16 14 9 1 358 348 330
223 223 224 224 224 224 223 218 216 218 224 232 245 254 257 262 268 275 280 289 293 293 302 316 335 344 347 349 354 358 3 8 10 12 12 11 12 9 358 352 351 338 332 328
222 221 224 224 225 226 224 218 217 221 228 233 241 250 251 255 261 271 280 288 293 282 282 297 307 311 317 327 333 333 341 351 357 1 3 2 2 1 356 350 349 345 332 327
222 222 224 224 224 224 222 220 219 223 228 232 236 246 249 249 260 270 276 282 286 279 275 280 285 287 291 298 303 311 312 321 331 335 341 348 347 344 344 343 338 339 334 330
221 222 224 223 223 223 223 221 221 223 227 232 234 242 250 251 259 268 270 276 279 274 273 273 272 273 278 289 298 305 297 304 311 314 319 325 330 333 334 334 332 330 324 317
222 220 222 223 224 225 225 224 225 227 229 230 232 240 248 250 254 261 261 267 271 271 271 268 263 265 271 280 286 296 291 292 296 299 307 314 319 324 326 324 322 323 318 309
222 221 221 223 224 225 226 225 225 227 229 229 232 236 240 243 246 251 257 265 266 264 267 265 261 262 266 272 275 284 285 286 289 293 301 308 310 312 316 318 318 319 316 307
221 220 221 223 223 224 224 223 223 225 227 229 232 235 240 244 247 249 256 261 264 269 269 265 261 261 261 261 268 275 278 280 285 291 293 293 298 303 307 312 314 314 311 304
219 219 218 220 221 221 222 223 225 226 228 230 230 230 235 239 242 250 254 258 266 270 272 271 269 267 267 263 259 265 272 281 285 286 286 288 292 300 303 306 305 306 307 302
218 218 218 220 220 222 222 223 225 225 226 228 230 230 233 235 239 245 252 254 263 268 268 269 268 265 266 262 253 259 269 276 280 283 281 282 286 294 301 302 300 300 300 296
217 219 218 218 218 218 218 218 221 223 224 226 228 230 232 234 238 243 250 253 259 264 267 270 267 263 266 262 257 262 266 271 273 276 281 281 285 288 294 299 300 298 296 293
219 221 220 220 221 221 220 219 220 222 222 225 227 228 229 233 241 246 253 257 261 265 263 265 267 267 266 262 258 261 262 267 272 274 277 281 285 289 294 299 302 299 299 298
218 220 221 220 220 222 224 221 220 222 224 226 225 227 229 233 240 246 249 253 258 262 264 266 263 265 263 259 257 258 260 264 267 273 276 280 284 289 292 294 297 297 300 300
217 220 221 220 220 222 223 222 222 224 225 226 224 226 228 232 239 246 251 254 255 256 261 261 258 260 261 259 257 256 258 261 265 270 272 276 280 287 290 292 294 295 296 297
218 219 220 220 220 222 224 225 224 223 225 227 226 226 229 232 238 245 251 256 257 256 256 255 256 256 256 257 257 257 258 259 262 267 272 275 281 285 287 289 292 294 294 291
220 220 220 218 218 221 222 225 227 225 226 226 226 228 230 235 240 246 251 255 255 256 256 256 258 259 257 255 254 255 256 260 262 265 270 272 277 282 285 287 290 290 290 289
222 222 220 218 219 221 222 222 224 226 226 226 228 231 233 237 242 246 252 256 254 255 255 259 260 260 258 256 253 254 255 259 262 264 267 270 274 279 282 284 286 288 290 291
223 223 222 220 220 221 221 223 227 229 229 229 231 234 237 240 243 248 252 254 254 256 259 258 257 258 258 257 256 256 256 257 259 262 265 268 272 275 279 281 284 286 287 289
223 223 222 221 221 222 220 222 227 230 233 234 235 236 239 242 246 250 253 255 256 259 260 258 258 255 254 255 256 256 258 258 259 262 266 267 269 273 277 280 283 285 286 287
223 223 222 221 223 223 221 221 226 232 236 237 239 240 241 243 246 248 251 254 256 258 260 258 257 257 256 255 256 258 257 259 260 262 265 267 269 272 275 277 279 283 285 287
221 223 222 222 224 224 223 224 227 231 234 238 241 241 242 245 247 248 251 255 258 260 261 260 260 257 255 255 257 259 261 261 260 262 265 268 268 269 270 274 276 280 283 284
222 222 222 224 223 223 225 227 230 232 235 239 240 242 243 246 249 252 254 256 258 260 261 261 260 260 258 257 258 260 262 260 260 263 265 267 269 271 273 276 279 280 281 283
221 223 224 225 225 226 227 229 232 235 237 239 241 243 244 246 251 255 257 257 257 257 258 259 259 260 260 259 258 259 261 261 263 264 264 266 268 272 276 278 282 283 283 284
222 226 228 228 227 228 228 230 232 234 235 238 241 243 245 248 251 254 255 255 256 258 257 258 259 259 259 259 260 260 261 260 262 264 265 267 270 272 276 279 280 281 283 286
Height
5894 5899 5902 5905 5908 5910 5912 5914 5915 5917 5917 5918 5919 5920 5921 5922 5923 5924 5924 5923 5923 5923 5922 5921 5920 5919 5918 5917 5916 5914 5913 5912 5911 5910 5909 5908 5907 5906 5906 5905 5905 5904 5904 5903
5890 5894 5898 5900 5902 5905 5908 5910 5912 5914 5914 5915 5917 5918 5920 5920 5921 5922 5922 5922 5922 5922 5922 5921 5919 5919 5918 5917 5916 5915 5913 5912 5911 5910 5910 5909 5907 5906 5906 5905 5904 5904 5903 5903
5884 5890 5892 5894 5897 5901 5904 5907 5909 5910 5911 5913 5914 5916 5917 5918 5918 5919 5920 5920 5921 5921 5921 5920 5919 5918 5918 5917 5916 5915 5913 5912 5912 5911 5910 5909 5907 5906 5906 5905 5904 5903 5902 5902
5878 5882 5885 5889 5893 5896 5900 5903 5905 5906 5908 5909 5911 5912 5913 5914 5915 5917 5918 5919 5919 5919 5920 5919 5918 5918 5917 5916 5915 5915 5914 5913 5911 5911 5910 5908 5907 5906 5906 5905 5903 5902 5902 5901
5873 5877 5880 5883 5888 5891 5896 5899 5901 5902 5903 5905 5907 5909 5911 5911 5912 5914 5915 5916 5916 5917 5918 5918 5918 5917 5916 5915 5915 5914 5913 5912 5911 5910 5909 5908 5907 5906 5905 5904 5903 5902 5901 5900
5867 5871 5874 5879 5883 5886 5890 5893 5896 5898 5899 5902 5904 5905 5907 5908 5910 5911 5913 5913 5914 5915 5916 5916 5916 5915 5914 5914 5913 5913 5912 5911 5910 5909 5909 5908 5906 5906 5905 5903 5902 5901 5900 5899
5861 5864 5868 5873 5877 5880 5884 5888 5891 5893 5895 5898 5900 5900 5903 5906 5907 5908 5909 5910 5911 5912 5913 5913 5913 5913 5913 5912 5912 5911 5909 5909 5909 5908 5908 5907 5905 5904 5903 5902 5901 5899 5898 5897
5854 5859 5863 5867 5871 5875 5878 5882 5886 5889 5891 5894 5896 5897 5901 5902 5903 5904 5905 5906 5908 5909 5910 5910 5911 5911 5911 5910 5909 5909 5908 5908 5908 5907 5906 5905 5904 5903 5902 5901 5899 5898 5896 5895
5849 5854 5858 5862 5866 5870 5873 5877 5881 5884 5886 5889 5891 5893 5895 5897 5898 5899 5900 5902 5904 5905 5906 5907 5907 5908 5908 5907 5906 5906 5906 5906 5906 5905 5904 5903 5902 5901 5900 5899 5897 5896 5894 5893
5843 5848 5853 5856 5860 5864 5868 5872 5875 5878 5881 5884 5887 5889 5891 5892 5894 5895 5896 5897 5900 5901 5902 5903 5903 5904 5904 5904 5904 5904 5904 5904 5904 5903 5902 5901 5900 5899 5898 5897 5895 5894 5892 5891
5837 5843 5847 5850 5854 5858 5863 5867 5869 5873 5876 5880 5882 5886 5886 5888 5890 5891 5892 5893 5895 5897 5898 5899 5900 5900 5901 5901 5901 5902 5901 5901 5901 5900 5899 5899 5898 5897 5896 5894 5893 5892 5890 5889
5832 5837 5840 5845 5850 5854 5857 5861 5864 5868 5871 5874 5877 5883 5882 5883 5885 5887 5887 5888 5890 5892 5894 5895 5896 5896 5897 5897 5898 5899 5898 5898 5898 5897 5896 5896 5895 5894 5893 5891 5890 5889 5887 5886
5827 5831 5836 5840 5845 5848 5851 5855 5859 5863 5866 5869 5872 5877 5878 5879 5881 5883 5884 5885 5886 5888 5889 5890 5891 5892 5893 5894 5894 5895 5895 5895 5894 5894 5893 5893 5892 5891 5890 5888 5887 5886 5884 5883
5822 5826 5831 5835 5839 5843 5846 5850 5853 5857 5860 5864 5867 5871 5873 5874 5876 5878 5880 5881 5882 5883 5883 5885 5886 5888 5889 5889 5890 5891 5891 5892 5891 5890 5889 5889 5888 5888 5887 5885 5884 5883 5881 5879
5817 5821 5825 5830 5834 5838 5842 5845 5848 5851 5855 5859 5862 5865 5868 5870 5872 5874 5876 5877 5878 5879 5879 5881 5881 5883 5884 5885 5886 5887 5887 5888 5887 5887 5886 5885 5885 5884 5883 5882 5881 5879 5878 5876
5811 5816 5821 5825 5829 5832 5836 5840 5843 5847 5850 5853 5856 5859 5862 5864 5867 5869 5871 5872 5873 5874 5875 5876 5877 5878 5880 5881 5882 5882 5883 5883 5883 5883 5882 5881 5880 5880 5879 5878 5877 5876 5874 5873
5805 5811 5815 5820 5824 5827 5832 5835 5838 5841 5844 5848 5850 5854 5857 5859 5862 5864 5866 5867 5867 5869 5870 5871 5872 5873 5874 5876 5877 5878 5878 5879 5878 5879 5878 5877 5877 5876 5875 5874 5873 5872 5870 5869
5800 5805 5810 5814 5819 5822 5829 5830 5833 5836 5838 5841 5844 5848 5851 5854 5856 5858 5860 5861 5861 5863 5865 5866 5866 5866 5867 5869 5871 5873 5873 5873 5873 5874 5874 5873 5873 5872 5871 5869 5868 5867 5865 5864
5795 5799 5804 5809 5812 5816 5822 5824 5827 5830 5833 5835 5838 5841 5845 5847 5850 5851 5853 5855 5855 5857 5858 5860 5860 5860 5861 5863 5865 5866 5867 5868 5868 5869 5869 5868 5868 5867 5866 5865 5864 5862 5861 5859
5789 5793 5798 5802 5806 5810 5816 5819 5821 5825 5827 5830 5832 5836 5839 5841 5843 5846 5847 5848 5850 5851 5852 5853 5855 5855 5856 5858 5859 5860 5861 5862 5863 5863 5863 5863 5862 5861 5861 5860 5859 5857 5856 5854
5783 5787 5791 5796 5800 5804 5810 5813 5816 5820 5822 5825 5827 5830 5833 5835 5838 5840 5840 5842 5844 5845 5845 5847 5848 5849 5850 5852 5853 5854 5854 5855 5856 5857 5857 5856 5855 5855 5855 5854 5853 5851 5850 5848
5777 5781 5785 5789 5794 5800 5804 5807 5811 5813 5816 5819 5822 5824 5827 5829 5831 5832 5834 5836 5837 5838 5839 5840 5841 5843 5844 5845 5847 5847 5848 5847 5848 5850 5850 5850 5849 5849 5848 5847 5846 5845 5844 5842
5771 5776 5780 5784 5790 5794 5797 5801 5804 5807 5810 5813 5815 5817 5820 5822 5824 5826 5827 5829 5830 5831 5832 5833 5835 5835 5837 5838 5839 5840 5841 5841 5842 5843 5843 5843 5842 5842 5841 5841 5839 5838 5837 5836
5765 5769 5774 5779 5783 5787 5791 5794 5797 5801 5804 5807 5809 5811 5814 5815 5817 5819 5821 5822 5823 5824 5825 5826 5827 5829 5830 5831 5832 5833 5834 5834 5835 5835 5835 5835 5835 5835 5834 5834 5833 5832 5830 5829
5759 5764 5768 5773 5777 5781 5785 5788 5791 5794 5797 5800 5802 5805 5807 5809 5811 5812 5813 5814 5815 5817 5818 5819 5820 5822 5823 5823 5824 5826 5826 5827 5827 5827 5827 5828 5828 5828 5828 5827 5826 5825 5824 5822
5753 5758 5763 5767 5772 5776 5779 5782 5785 5787 5790 5793 5796 5798 5800 5802 5804 5805 5806 5807 5808 5809 5811 5812 5813 5815 5816 5816 5817 5818 5819 5819 5820 5820 5820 5821 5821 5821 5821 5820 5819 5818 5818 5816